Location: Songkhla
(7.2000°N, 100.6000°E)
Time: 23:58:00
(UTC+07:00)

Daily predictions for brighter satellites

Satellite Brightness Start Highest point End
(mag) Time Altitude Azimuth Time Altitude Azimuth Time Altitude Azimuth
BLOCK DM-SL R/B 3.8 18:35:57 10° WSW 18:41:28 50° S 18:47:00 10° ESE
ARIANE 5 R/B 2.5 18:38:06 10° SSE 18:43:06 80° ENE 18:48:09 10° N
YAOGAN 1 3.1 18:41:48 10° SE 18:45:44 37° ENE 18:49:39 10° N
Cosmos 1633 Rocket 3.1 18:43:25 10° S 18:47:48 88° E 18:52:10 10° N
Lacrosse 4 Rocket 4.2 18:44:41 10° WNW 18:47:49 21° WSW 18:50:58 10° SSW
Cosmos 1666 Rocket 4.2 18:47:16 10° SSW 18:51:29 61° W 18:55:42 10° N
Cosmos 2154 Rocket 4.1 18:45:23 10° S 18:51:30 57° E 18:57:39 10° NNE
Resurs 1-3 3.6 18:47:37 10° SSE 18:51:50 58° ENE 18:56:02 10° N
CENTAUR R/B 3.7 18:43:58 10° N 18:53:03 51° ENE 19:01:53 10° SE
SJ-12 4.2 18:50:55 10° S 18:54:37 64° W 18:58:19 10° NNW
Cosmos 2181 Rocket 4.5 18:51:00 10° NNE 18:56:40 38° E 19:02:24 10° SSE
Cosmos 1441 Rocket 4.3 18:59:37 10° NE 19:02:01 19° E 19:03:48 13° ESE
Gblst 52 Del rocket 4.2 18:57:00 10° SW 19:02:29 89° NNW 19:08:16 10° NE
NOSS 0 Rocket 4.0 18:57:17 10° S 19:03:20 54° ESE 19:09:23 10° NNE
Cosmos 2184 Rocket 4.1 19:01:53 10° S 19:08:15 85° W 19:14:37 10° N
GPS 2-15 Rocket1 3.0 19:05:47 10° WNW 19:10:24 81° SSW 19:13:49 18° ESE
Yuri Rocket 3.3 19:07:00 10° NW 19:11:02 52° NNE 19:14:06 18° E
ATLAS 5 CENTAUR R/B 1.1 19:08:01 10° SW 19:11:27 29° SSE 19:12:25 21° SE
Milstar 3 3.3 19:05:19 10° SW 19:11:42 48° SSE 19:19:45 12° ENE
Cosmos 1844 Rocket 2.6 19:14:22 10° NNW 19:19:54 87° ENE 19:25:28 10° SSE
SJ-7 4.1 19:20:40 10° SSE 19:24:19 58° ENE 19:27:59 10° N
Delta 198 3.3 19:20:09 10° WNW 19:24:44 83° SSW 19:26:48 28° ESE
Hubble Space Telescope 2.5 19:24:07 10° S 19:25:52 15° SSE 19:25:52 15° SSE
Cosmos 2228 Rocket 3.2 19:24:25 10° N 19:28:40 50° E 19:32:09 14° SSE
Okean 1-7 2.8 19:27:34 10° N 19:31:40 87° W 19:35:48 10° S
Cosmos 2341 Rocket 4.5 19:26:59 10° SSE 19:32:31 35° E 19:38:04 10° NNE
Cosmos 2237 Rocket 2.2 19:27:13 10° S 19:32:43 56° ESE 19:38:13 10° NNE
Orbus 7S 2.5 19:31:08 10° WSW 19:33:56 50° NNW 19:33:59 49° NNW
Cosmos 1980 3.6 19:28:27 10° S 19:34:02 65° ESE 19:39:37 10° NNE
Resurs 01 Rocket 1.5 19:29:42 10° SSE 19:34:04 79° E 19:38:26 10° N
Aureole 2 4.0 19:34:27 10° NNW 19:37:37 87° WSW 19:38:19 50° S
ARIANE 5 DEB (SYLDA) 4.4 19:40:14 10° SSW 19:41:00 12° S 19:41:00 12° S
SL-8 Rocket 4.1 19:36:44 10° SSE 19:42:37 47° E 19:48:32 10° NNE
PSLV R/B 3.3 19:41:18 18° S 19:44:15 87° W 19:48:17 10° NNW
SJ-6B 2.8 19:45:30 52° NE 19:45:30 52° NE 19:48:41 10° N
Meteor 2-5 Rocket 3.6 19:45:35 10° N 19:51:11 81° E 19:56:14 13° S
Atlas Centaur 2 2.8 19:47:28 10° NW 19:52:48 47° NNE 19:54:30 39° ENE
BlueWalker 3 1.8 19:50:14 10° NW 19:53:37 75° W 19:53:37 75° W
Cosmos 2366 rocket 3.9 19:49:50 10° S 19:55:56 57° E 20:01:56 10° NNE
SL-24 R/B 4.3 19:52:29 10° N 19:57:30 80° W 20:02:01 10° SSW
Tiangong 0.4 19:55:54 10° NNW 19:56:43 15° N 19:56:43 15° N
Cosmos 2327 Rocket 4.5 19:53:05 10° S 19:59:10 79° W 20:05:20 10° N
Aurora 2 Rocket 4.0 19:54:17 10° SW 20:01:01 56° SSE 20:03:14 44° ESE
Cosmos 1339 Rocket 4.4 19:55:33 10° N 20:01:32 56° E 20:02:12 53° ESE
Ariane H10 3.6 19:55:48 10° W 20:01:36 89° SSW 20:02:50 60° E
Cosmos 1538 Rocket 4.0 19:57:14 10° NNW 20:02:23 79° WSW 20:04:28 37° S
SPOT 5 4.2 20:06:20 26° NNE 20:06:20 26° NNE 20:08:33 10° N
Centaur AC-116 4.5 20:14:20 10° W 20:16:16 29° SW 20:16:16 29° SW
BREEZE-M R/B 4.4 20:08:17 10° NNW 20:19:24 56° NE 20:19:49 55° ENE
Longmarch 3A Rocket 3.9 19:59:22 10° WSW 20:19:58 53° NW 20:22:13 34° NNE
Meteor 2-19 Rocket 4.3 20:18:57 10° N 20:24:32 76° NNE 20:24:32 76° NNE
NATO 3D Rocket 4.4 20:19:37 10° W 20:25:15 53° SSW 20:25:44 52° S
Cosmos 1959 Rocket 4.4 20:23:31 44° S 20:25:43 86° W 20:32:04 10° N
Cosmos 2218 Rocket 4.0 20:22:04 10° S 20:28:14 75° W 20:34:21 10° N
